Montauk, NY

7:21 PM EDT on September 25, 2016 (GMT -0400)
Montauk

Weather History for KMTP - May, 2013

Change the Weather History Date:

Tuesday, May 21, 2013

  Actual Average (KHTO) Record (KHTO)
Temperature  
Mean Temperature 64 °F -  
Max Temperature 73 °F 67 °F 86 °F (1992)
Min Temperature 57 °F 49 °F 34 °F (1992)
Growing Degree Days 14 (Base 50)    
Moisture  
Dew Point 60 °F    
Average Humidity 88    
Maximum Humidity 100    
Minimum Humidity 75    
Precipitation  
Precipitation 0.00 in - - ()
Sea Level Pressure  
Sea Level Pressure 29.94 in    
Wind  
Wind Speed 4 mph (SSW)    
Max Wind Speed 10 mph    
Max Gust Speed 20 mph    
Averages and records for this station are not official NWS values.
T = Trace of Precipitation, MM = Missing Value Source: NWS Daily Summary

Daily Weather History Graph

Daily Weather History Graph

Search for Another Location

Airport or City:

Trip Planner

Search our weather history database for the weather conditions in past years. The results will help you decide how hot, cold, wet, or windy it might be!

Date:

Astronomy

May. 21, 2013 Rise Set
Actual Time 5:24 AM EDT 8:04 PM EDT
Civil Twilight 4:52 AM EDT 8:36 PM EDT
Nautical Twilight 4:12 AM EDT 9:17 PM EDT
Astronomical Twilight 3:27 AM EDT 10:02 PM EDT
Moon 4:13 PM EDT (5/21) 2:52 AM EDT (5/21)
Length of Visible Light 15h 44m
Length of Day
14h 40m
Waxing Gibbous, 84% of the Moon is Illuminated
May 21
Waxing Gibbous
May 25
Full
May 31
Last Quarter
Jun 8
New
Jun 16
First Quarter

Hourly Weather History & Observations

Time (EDT) Temp. Dew Point Humidity Pressure Visibility Wind Dir Wind Speed Gust Speed Precip Events Conditions
12:54 AM 62.1 °F 60.1 °F 93% 29.99 in - SW 3.5 mph - N/A   Unknown
2:54 AM 57.9 °F 55.9 °F 93% 29.97 in - Calm Calm - N/A   Unknown
3:54 AM 57.0 °F 55.9 °F 96% 29.96 in - Variable 3.5 mph - N/A   Unknown
4:54 AM 57.9 °F 57.0 °F 97% 29.96 in - Calm Calm - N/A   Unknown
5:54 AM 59.0 °F 59.0 °F 100% 29.98 in - Calm Calm - N/A   Unknown
6:54 AM 59.0 °F 57.9 °F 96% 29.97 in - SSE 4.6 mph - N/A   Unknown
7:54 AM 62.1 °F 59.0 °F 90% 29.97 in - Variable 3.5 mph - N/A   Unknown
8:54 AM 62.1 °F 57.9 °F 86% 29.98 in - ESE 6.9 mph - N/A   Unknown
9:54 AM 72.0 °F 64.9 °F 78% 29.97 in - Variable 3.5 mph - N/A   Unknown
10:54 AM 68.0 °F 60.1 °F 76% 29.97 in - Variable 4.6 mph - N/A   Unknown
11:54 AM 69.1 °F 61.0 °F 75% 29.95 in - South 5.8 mph - N/A   Unknown
12:54 PM 71.1 °F 63.0 °F 75% 29.94 in - South 8.1 mph - N/A   Unknown
1:54 PM 69.1 °F 62.1 °F 78% 29.93 in - South 9.2 mph - N/A   Unknown
2:54 PM 69.1 °F 62.1 °F 78% 29.92 in - SSW 9.2 mph - N/A   Unknown
3:54 PM 68.0 °F 62.1 °F 81% 29.90 in - SSW 10.4 mph 17.3 mph N/A   Unknown
4:54 PM 66.9 °F 61.0 °F 81% 29.89 in - SSW 10.4 mph - N/A   Unknown
5:54 PM 66.9 °F 61.0 °F 81% 29.88 in - SSW 10.4 mph 19.6 mph N/A   Unknown
6:54 PM 64.9 °F 61.0 °F 87% 29.91 in - SW 6.9 mph - N/A   Unknown
7:54 PM 62.1 °F 60.1 °F 93% 29.93 in - SSW 6.9 mph - N/A   Unknown
8:54 PM 61.0 °F 60.1 °F 97% 29.95 in - SW 4.6 mph - N/A   Unknown
9:54 PM 60.1 °F 59.0 °F 96% 29.94 in - South 4.6 mph - N/A   Unknown
10:54 PM 59.0 °F 57.9 °F 96% 29.93 in - Variable 3.5 mph - N/A   Unknown
11:54 PM 57.9 °F 57.0 °F 97% 29.94 in - NE 5.8 mph - N/A   Unknown